Home > Weather > Mürzzuschlag > Past weeks

Flag for Austria Past Weather in Mürzzuschlag, Styria, Austria — Yesterday and Last 2 Weeks

Now
57 °F

Cool.


Feels Like: 57 °F
Forecast: 51 / 71 °F
Wind: 3 mph from North

Location: Eisenstadt

Current Time: May 27, 2016 at 4:39:00 AM

Latest Report: May 27, 2016 at 4:00 AM


Visibility: N/A

Pressure: 30.00 "Hg (27.70 "Hg at 670m altitude)

Humidity: 89%

Dew Point: 54 °F

Location of MürzzuschlagLocation

Past Weather in Mürzzuschlag — Graph

°F

Mürzzuschlag Temperature Yesterday

Maximum temperature yesterday: 75 °F (at 6:00 PM)
Minimum temperature yesterday: 56 °F (at 3:00 AM)
Average temperature yesterday: 65 °F

High & Low Weather Summary for the Past Weeks

 TemperatureHumidityPressure
High80 °F (May 23, 4:00 PM)97% (May 12, 5:00 AM)30.13 "Hg (May 12, 5:00 AM)
Low45 °F (May 16, 5:00 AM)35% (May 17, 2:00 PM)29.32 "Hg (May 13, 5:00 AM)
Average59 °F66%29.85 "Hg
* Reported May 12 3:00 AM — May 27 3:00 AM, Mürzzuschlag, Weather by CustomWeather, © 2016

Note: Actual official high and low records may vary slightly from our data, if they occured in-between our weather recording intervals... More about our weather records

Advertising

Mürzzuschlag Weather History for the Previous 24 Hours

Scroll right to see more
 ConditionsComfort  
Time TempWeatherWind HumidityBarometerVisibility
3:00 AM
Fri, May 27
58 °FCool.2 mph87%30.00 "HgN/A
2:00 AM57 °FCool.2 mph88%30.01 "HgN/A
1:00 AM58 °FCool.3 mph87%30.01 "HgN/A
12:00 AM58 °FCool.3 mph85%30.01 "HgN/A
11:00 PM
Thu, May 26
59 °FClear.3 mph84%30.01 "Hg6 mi
10:00 PM61 °FCool.3 mph82%30.01 "HgN/A
9:00 PM64 °FMild.2 mph78%29.99 "HgN/A
8:00 PM69 °FPassing clouds.2 mph69%29.98 "Hg9 mi
7:00 PM73 °FMild.1 mph51%29.96 "HgN/A
6:00 PM75 °FMild.3 mph49%29.96 "HgN/A
5:00 PM74 °FPassing clouds.2 mph49%29.96 "Hg9 mi
4:00 PM74 °FMild.3 mph50%29.96 "HgN/A
3:00 PM73 °FMild.5 mph50%29.98 "HgN/A
2:00 PM72 °FPassing clouds.6 mph55%29.98 "Hg9 mi
1:00 PM71 °FMild.3 mph61%29.98 "HgN/A
12:00 PM69 °FMild.5 mph64%29.99 "HgN/A
11:00 AM68 °FPassing clouds.3 mph67%29.99 "Hg9 mi
10:00 AM65 °FMild.1 mph70%29.99 "HgN/A
9:00 AM64 °FMild.No wind72%29.99 "HgN/A
8:00 AM61 °FPartly sunny.5 mph78%29.98 "Hg9 mi
7:00 AM60 °FOvercast.7 mph79%29.96 "Hg9 mi
6:00 AM59 °FPassing clouds.5 mph80%29.96 "Hg9 mi
5:00 AM60 °FCool.7 mph77%29.93 "HgN/A
4:00 AM60 °FCool.6 mph76%29.94 "HgN/A
Weather by CustomWeather, © 2016

See weather overviewHow to use our weather pages